Jasper, TX

5:11 PM CST on December 07, 2016 (GMT -0600)
Jasper County-Bell

Weather History for KJAS - April, 2013

Change the Weather History Date:

Friday, April 5, 2013

  Actual Average (KLFK) Record (KLFK)
Temperature  
Mean Temperature 57 °F 64 °F  
Max Temperature 73 °F 76 °F 89 °F (1908)
Min Temperature 41 °F 52 °F 35 °F (1920)
Degree Days  
Heating Degree Days 8 4  
Month to date heating degree days 20  
Since 1 July heating degree days 1864  
Cooling Degree Days 0 3  
Month to date cooling degree days 13  
Year to date cooling degree days 73  
Growing Degree Days 7 (Base 50)    
Moisture  
Dew Point 45 °F    
Average Humidity 67    
Maximum Humidity 97    
Minimum Humidity 33    
Precipitation  
Precipitation 0.00 in 0.10 in 3.78 in (1956)
Month to date precipitation 0.49  
Year to date precipitation 12.32  
Snow  
Snow 0.00 in - - ()
Month to date snowfall  
Since 1 July snowfall  
Snow Depth -    
Sea Level Pressure  
Sea Level Pressure 30.18 in    
Wind  
Wind Speed 4 mph (NNW)    
Max Wind Speed 10 mph    
Max Gust Speed -    
Visibility 10 miles    
Events      
T = Trace of Precipitation, MM = Missing Value Source: NWS Daily Summary

Daily Weather History Graph

Daily Weather History Graph

Search for Another Location

Airport or City:

Trip Planner

Search our weather history database for the weather conditions in past years. The results will help you decide how hot, cold, wet, or windy it might be!

Date:

Astronomy

Apr. 05, 2013 Rise Set
Actual Time 6:59 AM CDT 7:38 PM CDT
Civil Twilight 6:35 AM CDT 8:02 PM CDT
Nautical Twilight 6:06 AM CDT 8:31 PM CDT
Astronomical Twilight 5:37 AM CDT 9:00 PM CDT
Moon 3:49 AM CDT (4/5) 3:19 PM CDT (4/5)
Length of Visible Light 13h 27m
Length of Day
12h 38m
Waning Crescent, 23% of the Moon is Illuminated
Apr 5
Waning Crescent
Apr 10
New
Apr 18
First Quarter
Apr 25
Full
May 2
Last Quarter

Hourly Weather History & Observations

Time (CDT) Temp. Windchill Dew Point Humidity Pressure Visibility Wind Dir Wind Speed Gust Speed Precip Events Conditions
12:15 AM 50.0 °F - 43.9 °F 79% 30.19 in 10.0 mi NW 10.4 mph - N/A   Overcast
12:35 AM 50.0 °F - 44.1 °F 80% 30.18 in 10.0 mi NNW 5.8 mph - N/A   Overcast
12:55 AM 50.0 °F - 44.2 °F 81% 30.19 in 10.0 mi NNW 6.9 mph - N/A   Overcast
1:15 AM 50.0 °F - 44.4 °F 81% 30.19 in 10.0 mi NNW 6.9 mph - N/A   Overcast
1:35 AM 50.2 °F - 44.6 °F 81% 30.19 in 10.0 mi NNW 5.8 mph - N/A   Overcast
1:55 AM 50.2 °F - 44.6 °F 81% 30.20 in 10.0 mi NW 6.9 mph - N/A   Overcast
2:15 AM 50.2 °F - 44.4 °F 81% 30.19 in 10.0 mi NNW 6.9 mph - N/A   Overcast
2:35 AM 49.8 °F - 44.1 °F 81% 30.19 in 10.0 mi NNW 6.9 mph - N/A   Overcast
2:55 AM 50.0 °F - 44.2 °F 81% 30.18 in 10.0 mi NNW 9.2 mph - N/A   Overcast
3:15 AM 49.6 °F - 44.1 °F 81% 30.18 in 10.0 mi NNW 6.9 mph - N/A   Mostly Cloudy
3:35 AM 48.4 °F - 43.7 °F 84% 30.18 in 10.0 mi NNW 5.8 mph - N/A   Scattered Clouds
3:55 AM 47.3 °F - 43.3 °F 86% 30.18 in 10.0 mi NW 4.6 mph - N/A   Clear
4:15 AM 46.8 °F - 43.5 °F 88% 30.18 in 10.0 mi Calm Calm - N/A   Clear
4:35 AM 45.3 °F - 43.0 °F 92% 30.18 in 10.0 mi Calm Calm - N/A   Clear
4:55 AM 43.9 °F - 42.4 °F 95% 30.18 in 10.0 mi Calm Calm - N/A   Clear
5:15 AM 42.8 °F - 41.7 °F 96% 30.20 in 7.0 mi Calm Calm - N/A   Clear
5:35 AM 42.6 °F - 41.7 °F 97% 30.20 in 7.0 mi Calm Calm - N/A   Clear
5:55 AM 42.8 °F - 42.1 °F 97% 30.21 in 10.0 mi Calm Calm - N/A   Clear
6:15 AM 42.4 °F - 41.4 °F 96% 30.22 in 7.0 mi Calm Calm - N/A   Clear
6:35 AM 41.9 °F - 41.0 °F 97% 30.23 in 7.0 mi Calm Calm - N/A   Clear
6:55 AM 42.3 °F - 41.5 °F 97% 30.22 in 7.0 mi Calm Calm - N/A   Clear
7:15 AM 42.3 °F - 41.5 °F 97% 30.22 in 7.0 mi Calm Calm - N/A   Clear
7:35 AM 41.9 °F - 41.2 °F 97% 30.23 in 4.0 mi Calm Calm - N/A   Clear
7:55 AM 43.2 °F - 42.4 °F 97% 30.22 in 7.0 mi Calm Calm - N/A   Clear
8:15 AM 44.8 °F 43.3 °F 43.9 °F 97% 30.23 in 10.0 mi North 3.5 mph - N/A   Clear
8:35 AM 47.5 °F - 45.1 °F 92% 30.24 in 10.0 mi Calm Calm - N/A   Clear
8:55 AM 51.1 °F - 46.2 °F 83% 30.25 in 10.0 mi NNW 5.8 mph - N/A   Clear
9:15 AM 53.4 °F - 46.2 °F 77% 30.25 in 10.0 mi NNW 10.4 mph - N/A   Clear
9:35 AM 55.2 °F - 45.9 °F 71% 30.25 in 10.0 mi North 9.2 mph - N/A   Clear
9:55 AM 57.2 °F - 46.0 °F 66% 30.25 in 10.0 mi NNW 4.6 mph - N/A   Clear
10:15 AM 59.2 °F - 44.4 °F 58% 30.26 in 10.0 mi North 4.6 mph - N/A   Clear
10:35 AM 60.4 °F - 43.5 °F 54% 30.26 in 10.0 mi NNW 4.6 mph - N/A   Clear
10:55 AM 61.5 °F - 41.9 °F 49% 30.26 in 10.0 mi NW 6.9 mph - N/A   Clear
11:15 AM 62.2 °F - 40.8 °F 45% 30.26 in 10.0 mi North 4.6 mph - N/A   Clear
11:35 AM 63.3 °F - 40.6 °F 43% 30.25 in 10.0 mi Calm Calm - N/A   Clear
11:55 AM 64.9 °F - 40.8 °F 41% 30.24 in 10.0 mi Calm Calm - N/A   Clear
12:15 PM 65.7 °F - 40.3 °F 39% 30.23 in 10.0 mi NNE 8.1 mph - N/A   Clear
12:35 PM 66.4 °F - 40.1 °F 38% 30.23 in 10.0 mi Calm Calm - N/A   Clear
12:55 PM 67.3 °F - 40.6 °F 38% 30.22 in 10.0 mi NE 5.8 mph - N/A   Clear
1:15 PM 68.2 °F - 40.3 °F 36% 30.21 in 10.0 mi East 4.6 mph - N/A   Clear
1:35 PM 69.1 °F - 40.5 °F 35% 30.20 in 10.0 mi Calm Calm - N/A   Clear
1:55 PM 69.8 °F - 40.8 °F 35% 30.19 in 10.0 mi NNE 5.8 mph - N/A   Clear
2:15 PM 70.9 °F - 41.9 °F 35% 30.18 in 10.0 mi NNE 5.8 mph - N/A   Clear
2:35 PM 71.2 °F - 40.8 °F 33% 30.17 in 10.0 mi Calm Calm - N/A   Clear
2:55 PM 71.8 °F - 42.1 °F 34% 30.16 in 10.0 mi ENE 4.6 mph - N/A   Clear
3:15 PM 72.7 °F - 41.9 °F 33% 30.16 in 10.0 mi East 3.5 mph - N/A   Clear
3:35 PM 72.3 °F - 42.1 °F 34% 30.14 in 10.0 mi ESE 3.5 mph - N/A   Clear
3:55 PM 72.7 °F - 42.6 °F 34% 30.14 in 10.0 mi Calm Calm - N/A   Clear
4:15 PM 73.0 °F - 43.5 °F 35% 30.13 in 10.0 mi SW 3.5 mph - N/A   Clear
4:35 PM 73.0 °F - 44.2 °F 36% 30.12 in 10.0 mi SW 6.9 mph - N/A   Clear
4:55 PM 73.0 °F - 44.4 °F 36% 30.12 in 10.0 mi WSW 3.5 mph - N/A   Clear
5:15 PM 73.0 °F - 44.2 °F 36% 30.11 in 10.0 mi Calm Calm - N/A   Clear
5:35 PM 72.9 °F - 43.9 °F 35% 30.11 in 10.0 mi WSW 3.5 mph - N/A   Clear
5:55 PM 73.2 °F - 44.6 °F 36% 30.11 in 10.0 mi West 3.5 mph - N/A   Clear
6:15 PM 72.9 °F - 44.1 °F 36% 30.11 in 10.0 mi West 3.5 mph - N/A   Clear
6:35 PM 72.5 °F - 44.6 °F 37% 30.12 in 10.0 mi West 4.6 mph - N/A   Clear
6:55 PM 71.2 °F - 45.1 °F 39% 30.12 in 10.0 mi Calm Calm - N/A   Clear
7:15 PM 69.3 °F - 47.8 °F 46% 30.12 in 10.0 mi Calm Calm - N/A   Clear
7:35 PM 64.8 °F - 51.8 °F 63% 30.12 in 10.0 mi Calm Calm - N/A   Clear
7:55 PM 61.9 °F - 52.3 °F 71% 30.12 in 10.0 mi Calm Calm - N/A   Clear
8:15 PM 61.0 °F - 52.0 °F 72% 30.13 in 10.0 mi Calm Calm - N/A   Clear
8:35 PM 59.4 °F - 52.5 °F 78% 30.14 in 10.0 mi Calm Calm - N/A   Clear
8:55 PM 58.1 °F - 52.2 °F 81% 30.14 in 10.0 mi Calm Calm - N/A   Clear
9:15 PM 57.6 °F - 51.4 °F 80% 30.14 in 10.0 mi Calm Calm - N/A   Clear
9:35 PM 57.7 °F - 50.7 °F 77% 30.14 in 10.0 mi Calm Calm - N/A   Clear
9:55 PM 56.1 °F - 50.9 °F 83% 30.14 in 10.0 mi Calm Calm - N/A   Clear
10:15 PM 54.7 °F - 50.9 °F 87% 30.15 in 10.0 mi Calm Calm - N/A   Clear
10:35 PM 54.1 °F - 50.9 °F 89% 30.14 in 10.0 mi Calm Calm - N/A   Clear
10:55 PM 53.1 °F - 50.5 °F 91% 30.14 in 10.0 mi Calm Calm - N/A   Clear
11:15 PM 52.7 °F - 50.0 °F 91% 30.15 in 10.0 mi Calm Calm - N/A   Clear
11:35 PM 51.8 °F - 50.0 °F 94% 30.14 in 10.0 mi Calm Calm - N/A   Clear
11:55 PM 51.1 °F - 49.3 °F 94% 30.14 in 10.0 mi Calm Calm - N/A   Clear